Regional Weather Roundup
Issued by NWS

Home | Current Version | Previous Version | Text Only | Print | Product List | Glossary On
Versions: 1 2 3 4 5 6 7 8 9 10 11 12 13 14 15 16 17 18 19 20 21 22 23 24 25 26 27 28 29 30 31 32 33 34 35 36 37 38 39 40 41 42 43 44 45 46 47 48 49 50
000
ASUS43 KLSX 221407
RWRMO

WEATHER SUMMARY FOR MISSOURI
NATIONAL WEATHER SERVICE SPRINGFIELD MO
900 AM CDT FRI SEP 22 2017

NOTE: "FAIR" INDICATES FEW OR NO CLOUDS BELOW 12,000 FEET WITH NO
       SIGNIFICANT WEATHER AND/OR OBSTRUCTIONS TO VISIBILITY.
       CURRENT SKY AND/OR WEATHER CONDITIONS ARE NOT AVAILABLE FOR
       CHILLICOTHE AND FARMINGTON.

MOZ001>031-035>038-043-044-053-054-221500-
...NORTHERN AND WESTERN MISSOURI...

CITY           SKY/WX    TMP DP  RH WIND       PRES   REMARKS
KANSAS CTY INT MOSUNNY   76  71  85 S16       29.97R
KANSAS C DTWN  SUNNY     79  71  76 S15G24    29.96R
LEE`S SUMMIT   SUNNY     76  71  85 S16G23    30.00R
ST JOSEPH      MOSUNNY   78  72  81 S14       29.94R
CHILLICOTHE      N/A     77  71  82 VRB7      30.00R
KIRKSVILLE     SUNNY     77  70  79 S10       30.03R

$$
MOZ066>068-077>081-088>096-101>105-221500-
...SOUTHWEST MISSOURI...

CITY           SKY/WX    TMP DP  RH WIND       PRES   REMARKS
SPRINGFIELD    SUNNY     76  70  82 S13       30.05S
JOPLIN         SUNNY     76  72  87 SE12      30.02R
BRANSON        SUNNY     75  68  78 SE9       30.08R

$$
MOZ032>034-039>042-045>050-055>058-069>072-221500-
...CENTRAL MISSOURI...

CITY           SKY/WX    TMP DP  RH WIND       PRES   REMARKS
COLUMBIA       SUNNY     77  71  82 S9        30.05R
JEFFERSON CITY SUNNY     77  69  76 E3        30.04R
ROLLA          SUNNY     76  70  82 SE6       30.08S
SEDALIA        SUNNY     78  72  81 S12       30.04R
WHITEMAN AFB   SUNNY     75  75 100 S12       30.01R
WARRENSBURG    SUNNY     73  68  83 SE8       30.01R
OSAGE BEACH    SUNNY     75  70  84 SE6       30.06R

$$
MOZ051-052-059>065-221500-
...EAST CENTRAL MISSOURI...

CITY           SKY/WX    TMP DP  RH WIND       PRES   REMARKS
ST LOUIS INTL  MOSUNNY   81  71  71 SW6       30.08R
SPIRIT OF STL  SUNNY     78  72  81 CALM      30.06S
ST CHARLES     SUNNY     78  71  79 E3        30.07R

$$
MOZ072>076-082>087-097>100-106>115-221500-
...SOUTH CENTRAL AND SOUTHEAST MISSOURI...

CITY           SKY/WX    TMP DP  RH WIND       PRES   REMARKS
CAPE GIRARDEAU SUNNY     77  71  82 E3        30.07R
FARMINGTON     SUNNY     75  69  81 CALM      30.11R
POPLAR BLUFF   SUNNY     77  71  82 E3        30.07R
WEST PLAINS    SUNNY     77  70  79 SE5       30.10R

$$



USA.gov is the U.S. government's official web portal to all federal, state and local government web resources and services.